Location: Altenberg
(47.0000°N, 15.6167°E)
Time: 02:11:15
(UTC+00:00)

Daily predictions for brighter satellites

Satellite Brightness Start Highest point End
(mag) Time Altitude Azimuth Time Altitude Azimuth Time Altitude Azimuth
CENTAUR R/B 3.7 02:14:21 55° E 02:14:21 55° E 02:21:16 10° SE
ATLAS 2AS CENTAUR R/B 4.3 02:27:57 23° SSE 02:31:44 35° ESE 02:38:39 10° NE
BREEZE-M DEB (TANK) 4.4 02:45:11 70° S 02:45:45 73° SE 03:10:42 10° ENE
Lacrosse 5 3.6 02:52:48 29° ESE 02:52:48 29° ESE 02:56:14 10° ENE
ATLAS CENTAUR R/B 4.3 02:55:55 12° ENE 02:55:55 12° ENE 02:56:33 10° ENE
Cosmos 2263 Rocket 3.1 03:01:26 45° NE 03:01:26 45° NE 03:05:25 10° NNE
SJ 16-02 3.2 03:08:47 28° ENE 03:08:47 28° ENE 03:11:30 10° NE
FENGYUN 3A 4.3 03:12:56 10° NNE 03:18:16 54° E 03:23:32 10° S
Cosmos 1709 Rocket 4.2 03:15:32 10° S 03:21:51 73° E 03:28:15 10° NNE
CZ-4C R/B 3.4 03:25:49 19° S 03:28:43 36° ESE 03:33:55 10° NE
COSMO-SKYMED 1 4.0 03:25:14 10° SE 03:29:11 36° ENE 03:30:47 27° NNE
Meteor 2-3 Rocket 4.2 03:25:53 10° S 03:31:29 60° E 03:37:11 10° NNE
BREEZE-M DEB (TANK) 4.0 03:30:34 59° WNW 03:32:05 88° NNE 03:35:59 10° ESE
ATLAS 3B R/B 3.1 03:30:35 38° NNW 03:33:17 61° NE 03:40:22 10° SE
Cosmos 1943 3.7 03:36:00 45° S 03:36:00 45° S 03:40:02 10° S
Lacrosse 4 Rocket 2.7 03:38:11 35° SSE 03:38:11 35° SSE 03:40:46 10° SSE
EXPRESS MD2 3.8 03:53:25 54° NNE 03:53:25 54° NNE 03:58:31 10° E
ALOS 2.3 03:49:16 10° N 03:53:16 62° NNW 03:53:16 62° NNW
Cosmos 923 Rocket 3.9 03:53:38 59° NW 03:54:38 80° WSW 03:59:57 10° SSE
Cosmos 2227 Rocket 4.4 03:57:13 11° N 03:57:13 11° N 03:57:44 10° N
deb Chang Zheng 4 3.8 03:50:51 10° NNE 03:55:12 69° ESE 03:59:32 10° S
METEOR-M 4.0 03:53:18 10° NNE 03:58:40 88° WNW 04:04:01 10° SSW
Cosmos 2344 4.4 03:53:01 23° NW 03:59:48 81° NE 04:12:52 10° SE
NOSS 3-2 (C) 4.5 04:00:07 38° W 04:01:07 39° WSW 04:08:51 10° S
Cosmos 2227 4.5 04:01:37 45° NW 04:01:37 45° NW 04:06:35 10° NNE
NOSS 3-4 (A) 3.3 04:00:50 45° WSW 04:02:37 68° NW 04:09:00 10° NE
NOSS 3-4 (C) 3.3 04:00:54 45° WSW 04:02:45 69° NW 04:09:07 10° NE
USA 305 4.0 04:02:47 32° N 04:02:47 32° N 04:06:39 10° ENE
CENTAUR R/B 3.6 04:01:35 37° W 04:03:05 40° WSW 04:11:06 10° S
ARGOS Delta rocket 4.0 03:59:58 10° N 04:04:43 54° WNW 04:04:43 54° WNW
SAR-Lupe-1 4.1 04:02:12 10° SSE 04:05:46 78° ENE 04:05:49 78° ENE
Meteor 1-31 Rocket 3.7 04:02:45 10° N 04:05:08 36° N 04:05:08 36° N
Cosmos 2184 Rocket 4.4 04:03:03 10° S 04:09:16 64° E 04:15:35 10° NNE
USA 306 4.0 04:10:52 31° N 04:11:15 32° N 04:15:09 10° ENE
Cosmos 158 Rocket 3.8 04:10:38 52° WNW 04:11:19 57° WSW 04:16:12 10° S
Cosmos 1812 4.1 04:08:02 10° N 04:11:39 37° ENE 04:15:14 10° SE
Cosmos 2228 Rocket 4.3 04:07:31 10° N 04:11:44 41° ENE 04:15:53 10° SSE
Cosmos 1515 Rocket 3.5 04:09:36 20° N 04:12:43 85° E 04:17:11 10° S
Meteor 2-17 Rocket 4.3 04:07:31 10° S 04:13:34 84° W 04:19:40 10° N
SL-4 R/B 2.5 04:15:03 41° N 04:15:05 41° N 04:18:39 10° ENE
Cosmos 1151 Rocket 3.8 04:17:01 34° SW 04:17:01 34° SW 04:19:47 10° SSW
PSLV R/B 4.0 04:12:26 10° SSE 04:16:35 80° ENE 04:19:24 20° N
SKYMED 2 3.4 04:12:50 10° S 04:17:10 76° WSW 04:19:24 28° NNW
Cosmos 1782 2.7 04:16:34 56° NW 04:17:12 68° W 04:21:12 10° S
Cosmos 1844 Rocket 3.2 04:12:38 10° S 04:18:11 62° ESE 04:23:47 10° NNE
ERS-2 4.1 04:18:16 10° SSW 04:19:17 17° SSW 04:19:17 17° SSW
ATLAS 2AS CENTAUR R/B 3.0 04:15:31 15° SW 04:22:21 70° NW 04:30:11 10° NE
Cosmos 1680 Rocket 3.5 04:20:02 30° NW 04:22:35 61° WSW 04:27:48 10° S
SJ-12 3.7 04:18:55 10° N 04:23:00 76° WNW 04:27:02 10° SSW
FALCON 9 DEB 2.7 04:24:40 84° W 04:24:45 86° NNW 04:27:58 10° ENE
COSMOS 2455 4.5 04:19:22 10° S 04:24:47 36° ESE 04:30:13 10° NE
FALCON 9 DEB 4.3 04:26:37 29° N 04:26:54 30° N 04:30:01 10° ENE
ATLAS 5 CENTAUR R/B 3.4 04:31:19 19° NNW 04:31:19 19° NNW 04:32:39 10° NNE
Atlas Centaur 2 4.4 04:27:41 10° SW 04:31:09 15° S 04:34:16 10° SSE
Cosmos 1844 4.1 04:26:23 10° SSW 04:31:51 63° ESE 04:37:22 10° NNE
RESURS DK-1 2.2 04:28:14 10° SSW 04:32:24 85° WNW 04:36:36 10° NNE
CRYOSAT 2 4.5 04:27:47 10° SSW 04:32:30 50° W 04:37:15 10° NNW
ATLAS CENTAUR R/B 1.0 04:32:06 39° NW 04:33:24 81° SW 04:37:21 10° SSE
ADEOS 3.9 04:28:41 10° N 04:33:35 42° WNW 04:38:28 10° SW
Lacrosse 5 1.9 04:32:03 29° WSW 04:34:30 62° NNW 04:39:33 10° NE
Cosmos 1328 Rocket 4.2 04:35:39 33° W 04:35:39 33° W 04:39:36 10° SSW
Meteor PRIRODA 3.5 04:32:12 10° N 04:35:57 76° WNW 04:39:40 10° SSW
Cosmos 1500 Rocket 3.5 04:32:15 10° S 04:36:34 85° E 04:40:56 10° N
Meteor 2-6 Rocket 4.0 04:32:04 10° NNW 04:37:29 85° W 04:42:56 10° S
ERBS 4.2 04:38:12 18° N 04:38:12 18° N 04:40:17 10° NNE
H-2A R/B 3.0 04:35:57 10° NNE 04:39:52 73° ESE 04:43:44 10° S
Cosmos 1437 Rocket 3.5 04:37:45 10° N 04:41:28 49° ENE 04:45:08 10° SSE
Cosmos 2112 Rocket 4.3 04:38:53 20° NW 04:42:17 49° WSW 04:47:25 10° S
Okean O Rocket 4.0 04:39:42 10° NE 04:43:29 27° E 04:47:16 10° SSE
Cosmos 2263 Rocket 3.2 04:43:11 24° WNW 04:44:12 26° NW 04:48:54 10° N
Gbstr 26 Del rocket 3.2 04:43:33 31° W 04:44:49 44° SW 04:48:35 10° SE
SJ 16-02 2.2 04:45:52 27° WNW 04:46:05 27° WNW 04:49:54 10° N
ATLAS 5 CENTAUR R/B 4.4 04:45:58 10° SSE 04:48:52 19° ESE 04:51:56 10° ENE
Nadezhda 3 Rocket 4.0 04:43:33 10° N 04:49:54 89° E 04:56:09 10° S
Cosmos 1898 Rocket 3.6 04:48:16 10° SW 04:53:30 56° WNW 04:58:46 10° NNE
CZ-2C R/B 3.7 04:49:48 10° SE 04:55:00 47° ENE 05:00:08 10° N
Sich 1 3.9 04:53:09 10° S 04:57:29 54° E 05:01:49 10° NNE
FALCON 9 DEB 3.1 04:56:35 27° W 04:58:03 54° NNW 05:01:14 10° NE
FALCON 9 DEB 3.1 04:56:45 27° W 04:58:10 52° NNW 05:01:21 10° NE
Envisat 3.2 04:53:57 10° NNE 04:59:04 75° ESE 05:04:08 10° S
SJ-7 4.3 04:56:26 10° NNE 05:00:30 83° WNW 05:04:36 10° SSW
Cosmos 1743 Rocket 3.7 04:56:12 10° SSW 05:00:34 54° WNW 05:04:59 10° N
H-2A R/B 2.6 04:58:38 10° NNE 05:02:30 67° ESE 05:06:17 10° S
Cosmos 1408 Rocket 4.4 04:58:50 10° SW 05:02:43 29° WNW 05:06:37 10° NNW
Cosmos 2082 Rocket 4.0 05:00:03 10° N 05:04:52 27° NE 05:09:41 10° ESE
COSMO-SKYMED 1 3.6 05:01:51 10° SSW 05:05:26 25° W 05:07:59 15° NW
NOSS 7 (H) 4.2 05:02:24 10° SW 05:05:39 54° NW 05:08:32 10° NNE
NOSS 7 (E) 4.3 05:02:41 10° SW 05:06:25 85° NW 05:09:33 10° NE
CZ-4B R/B 4.2 05:01:51 10° NNE 05:07:03 49° E 05:12:18 10° S
USA 307 3.8 05:05:08 17° NW 05:08:07 39° NNE 05:12:11 10° E
Cosmos 1937 Rocket 3.5 05:05:32 10° SW 05:10:34 54° WNW 05:15:41 10° NNE
USA 308 3.7 05:11:14 15° NW 05:14:30 40° NNE 05:18:35 10° E
Cosmos 1833 Rocket 3.6 05:09:57 10° NNW 05:15:26 48° ENE 05:20:50 10° SE
MOS 1 Rocket 3.6 05:11:01 10° S 05:15:41 51° W 05:20:41 10° NNW
Cosmos 2154 Rocket 4.0 05:10:14 10° SSW 05:16:24 64° WNW 05:22:39 10° N
CZ-4C R/B 2.5 05:12:07 10° WSW 05:17:02 45° NW 05:23:00 10° NE
CZ-4B R/B 3.9 05:13:12 10° N 05:17:06 29° WNW 05:20:55 10° SW
Cosmos 1689 Rocket 4.0 05:17:01 10° SW 05:18:12 13° W 05:18:12 13° W
Meteor 1-27 Rocket 3.8 05:13:16 10° NNW 05:19:02 79° W 05:24:54 10° S
Cosmos 1805 Rocket 3.5 05:15:18 10° SSW 05:19:43 67° W 05:24:11 10° N
Meteor 1-10 Rocket 4.5 05:15:38 10° NNW 05:20:57 47° W 05:26:17 10° SSW
FALCON 9 DEB 3.5 05:18:32 15° W 05:20:58 41° NNW 05:24:04 10° NE
ATLAS 3B R/B 3.4 05:17:51 11° NW 05:23:44 36° WSW 05:30:09 10° S
Aureole 2 Rocket 2.2 05:22:03 10° SW 05:24:25 35° WNW 05:26:49 10° N
COSMOS 2406 3.6 05:19:48 10° NNW 05:25:33 69° ENE 05:31:18 10° SE
Cosmos 2298 Rocket 4.5 05:20:55 10° S 05:26:10 68° ESE 05:31:26 10° NNE
Cosmos 1666 Rocket 3.9 05:22:31 10° S 05:26:49 70° E 05:31:08 10° NNE
Cosmos 1862 4.1 05:23:48 10° SW 05:27:25 31° WNW 05:31:04 10° N
Cosmos 1048 Rocket 4.2 05:22:30 10° NNW 05:27:49 78° ENE 05:33:01 10° SSE
YAOGAN 6 2.7 05:24:40 10° N 05:28:03 47° WNW 05:31:25 10° SSW
Genesis I 4.0 05:26:11 10° WSW 05:29:36 30° NW 05:33:04 10° NNE
ALOS 4.1 05:29:13 10° NW 05:30:32 11° NW 05:31:45 10° WNW
DMSP B5D2-2 4.4 05:25:37 10° SSE 05:30:49 72° ENE 05:36:02 10° N
Cosmos 2341 Rocket 4.0 05:26:07 10° S 05:32:20 86° W 05:38:36 10° N
Cosmos 2278 Rocket 3.4 05:28:13 10° S 05:33:38 49° ESE 05:39:04 10° NE
PSLV R/B 4.4 05:33:16 10° N 05:36:46 33° WNW 05:40:11 10° SW
SL-8 Rocket 4.1 05:33:48 10° S 05:39:56 84° E 05:46:09 10° N
Cosmos 405 Rocket 3.8 05:40:28 10° WSW 05:43:24 22° WNW 05:46:23 10° NNW
USA 305 3.4 05:39:12 10° NW 05:43:25 52° NNE 05:47:38 10° E
BREEZE M DEB (TANK) 2.4 05:37:31 10° WSW 05:43:29 73° SSE 05:45:54 10° ENE
Okean 1 4.4 05:40:26 10° N 05:44:23 49° ENE 05:48:19 10° SSE
NOAA 12 4.1 05:40:37 10° NNE 05:45:55 78° WNW 05:51:09 10° SSW
Cosmos 1812 4.3 05:44:34 10° NW 05:47:07 17° W 05:49:41 10° SW
Cosmos 2228 Rocket 4.4 05:46:22 10° NW 05:49:38 20° W 05:52:52 10° SW
